Find KUIPER-00482

NORAD ID: 68877 Int'l Des: 2026-095P Owner: kuiper Country: USA Constellation: kuiper operational
LEOCIRCULAR

リアルタイム位置

3D地球を読み込み中...

KUIPER-00482について

説明を読み込み中...

次回通過

Passes for default location (London). Set your location on the main map for personalized predictions.

高度履歴

Loading altitude history...

軌道要素

1 68877U 26095P 26121.83336806 .00061244 00000-0 16088-2 0 9999
2 68877 51.8827 106.4888 0002773 99.0004 68.6687 15.38025493 1322
Epoch: May 1, 2026 • Age: 6 hours

現在のステータス

高度 454.2 km
速度 7.65 km/s
衛星直下点 41.38°N, 97.63°W
タイプ internet

Most Searched